Radiation Dose at Monitoring Post of Fukushima Daini Nuclear Power Station
Date,Time,MP-1(microSv/h),MP-2(microSv/h),MP-3(microSv/h),MP-4(microSv/h),MP-5(microSv/h),MP-6(microSv/h),MP-7(microSv/h),Wind Direction,Wind Velocity(m/s),Rain
2020/03/18,00:00,0.178,0.162,0.260,0.244,0.253,0.138,0.084,-,CALM,No
2020/03/18,00:10,0.177,0.163,0.259,0.243,0.255,0.139,0.083,east-southeast,1.8,No
2020/03/18,00:20,0.178,0.162,0.261,0.242,0.254,0.138,0.085,southwest,0.6,No
2020/03/18,00:30,0.178,0.162,0.259,0.243,0.254,0.139,0.084,north-northwest,2.1,No
2020/03/18,00:40,0.177,0.163,0.260,0.244,0.254,0.138,0.084,north,2.4,No
2020/03/18,00:50,0.178,0.163,0.259,0.244,0.255,0.138,0.085,west-northwest,7.3,No
2020/03/18,01:00,0.179,0.163,0.259,0.245,0.255,0.139,0.085,west-northwest,7.1,No
2020/03/18,01:10,0.178,0.162,0.259,0.244,0.253,0.139,0.084,west,7.0,No
2020/03/18,01:20,0.177,0.162,0.259,0.244,0.254,0.138,0.084,west-northwest,10.7,No
2020/03/18,01:30,0.178,0.163,0.259,0.243,0.254,0.138,0.084,west,11.7,No
2020/03/18,01:40,0.179,0.162,0.259,0.244,0.255,0.138,0.085,west,12.2,No
2020/03/18,01:50,0.178,0.162,0.261,0.243,0.255,0.138,0.084,west,11.7,No
2020/03/18,02:00,0.178,0.162,0.260,0.244,0.255,0.138,0.084,west,15.6,No
2020/03/18,02:10,0.179,0.163,0.258,0.244,0.253,0.139,0.085,west-northwest,14.5,No
2020/03/18,02:20,0.179,0.163,0.260,0.244,0.255,0.138,0.084,west-northwest,12.6,No
2020/03/18,02:30,0.178,0.163,0.260,0.244,0.256,0.138,0.084,west,13.3,No
2020/03/18,02:40,0.178,0.164,0.261,0.244,0.255,0.139,0.084,west-northwest,13.7,No
2020/03/18,02:50,0.179,0.163,0.259,0.243,0.255,0.139,0.085,west,17.7,No
2020/03/18,03:00,0.177,0.163,0.259,0.245,0.255,0.139,0.084,west,17.3,No
2020/03/18,03:10,0.178,0.162,0.260,0.243,0.256,0.139,0.084,west,19.2,No
2020/03/18,03:20,0.179,0.163,0.262,0.244,0.256,0.138,0.084,west,14.4,No
2020/03/18,03:30,0.179,0.163,0.262,0.244,0.255,0.138,0.084,west,13.4,No
2020/03/18,03:40,0.180,0.163,0.261,0.243,0.256,0.139,0.084,west-northwest,14.7,No
2020/03/18,03:50,0.178,0.162,0.261,0.244,0.255,0.138,0.084,west,14.5,No
2020/03/18,04:00,0.180,0.163,0.261,0.243,0.255,0.138,0.084,west,15.8,No
2020/03/18,04:10,0.179,0.163,0.260,0.244,0.255,0.138,0.084,west,13.3,No
2020/03/18,04:20,0.180,0.162,0.260,0.245,0.255,0.138,0.084,west-northwest,13.1,No
2020/03/18,04:30,0.179,0.163,0.259,0.244,0.255,0.138,0.084,west,14.4,No
2020/03/18,04:40,0.178,0.165,0.261,0.243,0.255,0.138,0.084,west,14.8,No
2020/03/18,04:50,0.179,0.163,0.260,0.244,0.255,0.139,0.084,west,15.3,No
2020/03/18,05:00,0.178,0.163,0.262,0.244,0.256,0.138,0.084,west,13.3,No
2020/03/18,05:10,0.178,0.163,0.261,0.244,0.254,0.138,0.084,west-northwest,13.7,No
2020/03/18,05:20,0.180,0.164,0.260,0.244,0.254,0.139,0.084,west,14.2,No
2020/03/18,05:30,0.179,0.163,0.261,0.245,0.255,0.139,0.084,west,13.1,No
2020/03/18,05:40,0.179,0.163,0.261,0.244,0.255,0.138,0.085,west,13.7,No
2020/03/18,05:50,0.178,0.164,0.261,0.244,0.255,0.139,0.084,west,14.0,No
2020/03/18,06:00,0.179,0.164,0.261,0.244,0.255,0.139,0.084,west,16.1,No
2020/03/18,06:10,0.179,0.164,0.262,0.243,0.257,0.139,0.084,west,12.8,No
2020/03/18,06:20,0.179,0.163,0.261,0.245,0.255,0.137,0.084,west,12.2,No
2020/03/18,06:30,0.179,0.163,0.260,0.245,0.255,0.138,0.084,west,12.6,No
2020/03/18,06:40,0.179,0.164,0.262,0.245,0.254,0.138,0.085,west,13.6,No
2020/03/18,06:50,0.179,0.163,0.261,0.244,0.257,0.139,0.084,west,12.5,No
2020/03/18,07:00,0.178,0.163,0.261,0.244,0.255,0.138,0.084,west,14.6,No
2020/03/18,07:10,0.180,0.163,0.260,0.245,0.256,0.138,0.084,west,14.5,No
2020/03/18,07:20,0.178,0.163,0.261,0.244,0.255,0.139,0.084,west,14.0,No
2020/03/18,07:30,0.179,0.163,0.261,0.244,0.256,0.138,0.084,west,10.7,No
2020/03/18,07:40,0.180,0.163,0.261,0.243,0.255,0.139,0.084,northwest,5.4,No
2020/03/18,07:50,0.179,0.163,0.261,0.242,0.256,0.138,0.084,northwest,1.1,No
2020/03/18,08:00,0.178,0.163,0.261,0.244,0.256,0.139,0.084,southeast,1.0,No
2020/03/18,08:10,0.179,0.161,0.259,0.242,0.255,0.139,0.084,northeast,2.1,No
2020/03/18,08:20,0.178,0.162,0.260,0.244,0.256,0.138,0.084,southeast,1.1,No
2020/03/18,08:30,0.177,0.163,0.261,0.243,0.255,0.138,0.085,north-northeast,4.1,No
2020/03/18,08:40,0.179,0.163,0.259,0.243,0.254,0.138,0.084,north-northwest,2.1,No
2020/03/18,08:50,0.178,0.162,0.260,0.244,0.257,0.138,0.084,west,1.1,No
2020/03/18,09:00,0.179,0.163,0.259,0.241,0.254,0.138,0.084,east-southeast,1.2,No
2020/03/18,09:10,0.178,0.162,0.259,0.243,0.255,0.138,0.084,west,4.3,No
2020/03/18,09:20,0.178,0.163,0.260,0.243,0.254,0.138,0.083,west,2.3,No
2020/03/18,09:30,0.177,0.162,0.260,0.244,0.255,0.137,0.085,northwest,4.1,No
2020/03/18,09:40,0.178,0.162,0.260,0.244,0.255,0.138,0.084,west,6.7,No
2020/03/18,09:50,0.177,0.163,0.259,0.244,0.254,0.138,0.084,northwest,5.8,No
2020/03/18,10:00,0.177,0.162,0.260,0.242,0.256,0.138,0.084,northwest,5.1,No
2020/03/18,10:10,0.176,0.163,0.259,0.243,0.253,0.138,0.085,west-northwest,5.9,No
2020/03/18,10:20,0.178,0.162,0.259,0.243,0.255,0.137,0.083,west-northwest,6.6,No
2020/03/18,10:30,0.177,0.163,0.261,0.244,0.255,0.138,0.085,northwest,3.1,No
2020/03/18,10:40,0.175,0.163,0.259,0.244,0.256,0.138,0.083,west,7.9,No
2020/03/18,10:50,0.176,0.163,0.260,0.244,0.254,0.138,0.084,west-northwest,9.2,No
2020/03/18,11:00,0.177,0.163,0.260,0.244,0.255,0.139,0.084,west-northwest,11.8,No
2020/03/18,11:10,0.179,0.163,0.260,0.243,0.253,0.136,0.084,west,9.8,No
2020/03/18,11:20,0.175,0.162,0.261,0.245,0.257,0.138,0.083,west,5.5,No
2020/03/18,11:30,0.177,0.162,0.259,0.243,0.252,0.138,0.084,northwest,4.7,No
2020/03/18,11:40,0.176,0.163,0.262,0.245,0.256,0.138,0.083,northwest,7.1,No
2020/03/18,11:50,0.177,0.163,0.260,0.244,0.254,0.138,0.084,west-northwest,8.2,No
2020/03/18,12:00,0.175,0.164,0.261,0.244,0.255,0.138,0.083,west-northwest,9.2,No
2020/03/18,12:10,0.178,0.163,0.259,0.244,0.255,0.138,0.085,west-northwest,7.4,No
2020/03/18,12:20,0.177,0.164,0.262,0.244,0.252,0.138,0.084,west-northwest,6.4,No
2020/03/18,12:30,0.178,0.163,0.259,0.244,0.254,0.138,0.084,west-northwest,9.8,No
2020/03/18,12:40,0.178,0.163,0.261,0.241,0.252,0.138,0.084,west-northwest,12.8,No
2020/03/18,12:50,0.179,0.163,0.261,0.245,0.253,0.139,0.084,west-northwest,9.2,No
2020/03/18,13:00,0.178,0.162,0.261,0.244,0.256,0.138,0.084,west-northwest,10.1,No
2020/03/18,13:10,0.180,0.164,0.261,0.245,0.255,0.139,0.084,west-northwest,7.9,No
2020/03/18,13:20,0.179,0.163,0.261,0.245,0.256,0.138,0.084,west,10.3,No
2020/03/18,13:30,0.180,0.164,0.260,0.246,0.253,0.138,0.084,west-northwest,10.4,No
2020/03/18,13:40,0.178,0.163,0.262,0.243,0.257,0.138,0.085,west-northwest,9.2,No
2020/03/18,13:50,0.179,0.164,0.263,0.246,0.254,0.138,0.084,west-northwest,12.8,No
2020/03/18,14:00,0.177,0.163,0.263,0.243,0.254,0.139,0.085,west,7.3,No
2020/03/18,14:10,0.178,0.163,0.261,0.244,0.255,0.138,0.085,west,11.2,No
2020/03/18,14:20,0.178,0.162,0.263,0.243,0.253,0.139,0.084,west,9.0,No
2020/03/18,14:30,0.177,0.164,0.262,0.243,0.256,0.138,0.084,west-northwest,11.7,No
2020/03/18,14:40,0.177,0.163,0.263,0.246,0.254,0.139,0.084,west-northwest,9.0,No
2020/03/18,14:50,0.178,0.164,0.261,0.244,0.254,0.139,0.085,west-northwest,10.4,No
2020/03/18,15:00,0.179,0.162,0.261,0.245,0.256,0.138,0.084,west-northwest,10.6,No
2020/03/18,15:10,0.177,0.163,0.263,0.246,0.255,0.140,0.084,west-northwest,11.8,No
2020/03/18,15:20,0.178,0.164,0.262,0.245,0.257,0.138,0.085,west-northwest,10.9,No
2020/03/18,15:30,0.176,0.164,0.262,0.247,0.257,0.139,0.085,northwest,9.5,No
2020/03/18,15:40,0.179,0.164,0.263,0.245,0.257,0.140,0.084,northwest,7.8,No
2020/03/18,15:50,0.179,0.165,0.263,0.247,0.255,0.138,0.084,northwest,5.8,No
2020/03/18,16:00,0.178,0.164,0.264,0.246,0.256,0.139,0.084,west-northwest,6.4,No
2020/03/18,16:10,0.179,0.165,0.264,0.245,0.255,0.139,0.084,west-northwest,8.2,No
2020/03/18,16:20,0.179,0.164,0.263,0.247,0.257,0.140,0.084,west-northwest,9.5,No
2020/03/18,16:30,0.180,0.164,0.264,0.246,0.253,0.139,0.085,west,12.6,No
2020/03/18,16:40,0.180,0.164,0.262,0.245,0.256,0.140,0.084,west-northwest,9.2,No
2020/03/18,16:50,0.180,0.164,0.263,0.247,0.254,0.139,0.085,west,7.4,No
2020/03/18,17:00,0.180,0.164,0.264,0.245,0.256,0.140,0.085,west,4.7,No
2020/03/18,17:10,0.179,0.165,0.263,0.246,0.254,0.139,0.085,west-northwest,7.1,No
2020/03/18,17:20,0.181,0.164,0.264,0.246,0.257,0.139,0.084,west-northwest,7.4,No
2020/03/18,17:30,0.179,0.165,0.264,0.245,0.255,0.139,0.084,west-northwest,8.6,No
2020/03/18,17:40,0.179,0.164,0.263,0.247,0.255,0.138,0.084,west,7.3,No
2020/03/18,17:50,0.180,0.165,0.263,0.245,0.257,0.140,0.085,south-southwest,3.6,No
2020/03/18,18:00,0.180,0.164,0.264,0.245,0.256,0.139,0.084,south,6.2,No
2020/03/18,18:10,0.180,0.163,0.263,0.247,0.257,0.140,0.085,south,6.0,No
2020/03/18,18:20,0.181,0.164,0.263,0.246,0.257,0.141,0.084,south,4.9,No
2020/03/18,18:30,0.179,0.164,0.264,0.246,0.255,0.140,0.084,southwest,4.7,No
2020/03/18,18:40,0.180,0.165,0.262,0.246,0.256,0.140,0.084,southwest,3.9,No
2020/03/18,18:50,0.180,0.164,0.262,0.247,0.256,0.139,0.084,southwest,3.8,No
2020/03/18,19:00,0.179,0.164,0.263,0.244,0.257,0.140,0.084,south-southwest,2.7,No
2020/03/18,19:10,0.179,0.164,0.263,0.246,0.256,0.140,0.085,southwest,3.1,No
2020/03/18,19:20,0.179,0.164,0.263,0.246,0.256,0.139,0.084,southwest,4.0,No
2020/03/18,19:30,0.180,0.164,0.263,0.245,0.255,0.140,0.084,southwest,4.3,No
2020/03/18,19:40,0.180,0.164,0.263,0.246,0.257,0.140,0.085,southwest,4.7,No
2020/03/18,19:50,0.180,0.165,0.263,0.246,0.255,0.139,0.085,southwest,4.1,No
2020/03/18,20:00,0.179,0.164,0.264,0.246,0.255,0.140,0.084,southwest,2.1,No
2020/03/18,20:10,0.179,0.164,0.264,0.247,0.255,0.139,0.084,southwest,2.7,No
2020/03/18,20:20,0.180,0.165,0.262,0.247,0.255,0.139,0.085,west-southwest,2.5,No
2020/03/18,20:30,0.178,0.164,0.262,0.245,0.256,0.140,0.084,southwest,2.8,No
2020/03/18,20:40,0.179,0.163,0.263,0.246,0.256,0.139,0.084,southwest,4.2,No
2020/03/18,20:50,0.179,0.165,0.262,0.247,0.254,0.139,0.085,southwest,4.8,No
2020/03/18,21:00,0.180,0.163,0.263,0.247,0.256,0.139,0.085,southwest,4.8,No
2020/03/18,21:10,0.178,0.164,0.264,0.246,0.255,0.139,0.085,southwest,4.1,No
2020/03/18,21:20,0.179,0.164,0.264,0.246,0.256,0.140,0.085,southwest,4.6,No
2020/03/18,21:30,0.179,0.164,0.264,0.246,0.255,0.139,0.085,southwest,3.6,No
2020/03/18,21:40,0.180,0.164,0.264,0.247,0.255,0.140,0.085,west-southwest,3.8,No
2020/03/18,21:50,0.179,0.164,0.264,0.245,0.256,0.139,0.084,west-southwest,4.2,No
2020/03/18,22:00,0.181,0.164,0.263,0.245,0.255,0.139,0.086,west-southwest,4.9,No
2020/03/18,22:10,0.181,0.164,0.263,0.246,0.256,0.139,0.085,west,4.9,No
2020/03/18,22:20,0.179,0.164,0.263,0.245,0.256,0.139,0.085,west-southwest,2.7,No
2020/03/18,22:30,0.180,0.165,0.264,0.246,0.255,0.139,0.084,west-southwest,1.6,No
2020/03/18,22:40,0.181,0.165,0.264,0.246,0.254,0.138,0.085,-,CALM,No
2020/03/18,22:50,0.180,0.163,0.264,0.246,0.255,0.139,0.085,northwest,1.2,No
2020/03/18,23:00,0.179,0.164,0.262,0.247,0.255,0.139,0.085,west,4.9,No
2020/03/18,23:10,0.180,0.164,0.264,0.246,0.255,0.139,0.085,west,4.5,No
2020/03/18,23:20,0.181,0.164,0.264,0.245,0.254,0.139,0.085,west-southwest,2.7,No
2020/03/18,23:30,0.180,0.164,0.263,0.246,0.256,0.139,0.084,west-southwest,3.6,No
2020/03/18,23:40,0.180,0.164,0.262,0.246,0.256,0.139,0.085,west-southwest,4.2,No
2020/03/18,23:50,0.180,0.165,0.263,0.245,0.255,0.139,0.085,west-southwest,3.4,No
